• Em Portugal
  • Lista de países
  • Para 7 dias
  • Temperatura da água
  • Mapas de satélite
  • Mapa do tempo
  • Widgets de tempo
  • user-avatar
    Iniciar Sessão

    Previsão horária em Manaus

    Hoje, 21 Setembro, Quinta-feira

    Tempo Temperatura Precipitação Vento Pressão Humidade
    00:00 +28°C° 0 mm 0 m/s 753 mmHg 59%
    01:00 +27°C° 0 mm 0 m/s 753 mmHg 61%
    02:00 +27°C° 0 mm 0 m/s 753 mmHg 62%
    03:00 +27°C° 0 mm 0 m/s 753 mmHg 64%
    04:00 +26°C° 0 mm 0 m/s 753 mmHg 66%
    05:00 +26°C° 0 mm 0 m/s 753 mmHg 68%
    06:00 +28°C° 0 mm 0 m/s 753 mmHg 62%
    07:00 +32°C° 0 mm 1 m/s 754 mmHg 56%
    08:00 +34°C° 0 mm 1 m/s 754 mmHg 50%
    09:00 +36°C° 0 mm 1 m/s 754 mmHg 43%
    10:00 +39°C° 0 mm 2 m/s 754 mmHg 36%
    11:00 +41°C° 0 mm 2 m/s 754 mmHg 29%
    12:00 +41°C° 0 mm 2 m/s 753 mmHg 30%
    13:00 +41°C° 0 mm 2 m/s 753 mmHg 31%
    14:00 +40°C° 0 mm 2 m/s 752 mmHg 32%
    15:00 +40°C° 0 mm 1 m/s 751 mmHg 34%
    16:00 +39°C° 0 mm 1 m/s 751 mmHg 36%
    17:00 +35°C° 0 mm 0 m/s 751 mmHg 38%
    18:00 +34°C° 0,2 mm 0 m/s 751 mmHg 43%
    19:00 +34°C° 0,2 mm 1 m/s 752 mmHg 47%
    20:00 +33°C° 0,2 mm 1 m/s 752 mmHg 51%
    21:00 +31°C° 0,3 mm 1 m/s 753 mmHg 58%
    22:00 +28°C° 0,3 mm 0 m/s 753 mmHg 66%
    23:00 +27°C° 0,3 mm 0 m/s 753 mmHg 73%

    Amanhã, 22 Setembro, Sexta-feira

    Tempo Temperatura Precipitação Vento Pressão Humidade
    00:00 +28°C° 0 mm 1 m/s 753 mmHg 75%
    01:00 +28°C° 0 mm 1 m/s 752 mmHg 78%
    02:00 +27°C° 0 mm 1 m/s 752 mmHg 80%
    03:00 +27°C° 0 mm 1 m/s 752 mmHg 81%
    04:00 +27°C° 0 mm 1 m/s 752 mmHg 82%
    05:00 +27°C° 0 mm 1 m/s 753 mmHg 83%
    06:00 +28°C° 0 mm 1 m/s 753 mmHg 76%
    07:00 +30°C° 0 mm 2 m/s 754 mmHg 69%
    08:00 +31°C° 0 mm 2 m/s 755 mmHg 62%
    09:00 +35°C° 0 mm 2 m/s 755 mmHg 54%
    10:00 +37°C° 0 mm 2 m/s 755 mmHg 45%
    11:00 +39°C° 0 mm 2 m/s 754 mmHg 37%
    12:00 +39°C° 0 mm 2 m/s 753 mmHg 37%
    13:00 +40°C° 0 mm 1 m/s 752 mmHg 36%
    14:00 +40°C° 0 mm 1 m/s 751 mmHg 35%
    15:00 +37°C° 0 mm 1 m/s 751 mmHg 39%
    16:00 +36°C° 0 mm 1 m/s 751 mmHg 43%
    17:00 +35°C° 0 mm 1 m/s 750 mmHg 47%
    18:00 +34°C° 0,1 mm 1 m/s 751 mmHg 52%
    19:00 +32°C° 0,1 mm 1 m/s 752 mmHg 58%
    20:00 +30°C° 0,1 mm 1 m/s 752 mmHg 64%
    21:00 +30°C° 0,2 mm 1 m/s 752 mmHg 69%
    22:00 +29°C° 0,2 mm 1 m/s 753 mmHg 73%
    23:00 +26°C° 0,2 mm 0 m/s 753 mmHg 78%

    Depois de amanhã, 23 Setembro, Sábado

    Tempo Temperatura Precipitação Vento Pressão Humidade
    00:00 +26°C° 0,1 mm 0 m/s 752 mmHg 80%
    01:00 +25°C° 0,1 mm 0 m/s 752 mmHg 81%
    02:00 +27°C° 0,1 mm 1 m/s 751 mmHg 82%
    03:00 +27°C° 0,1 mm 1 m/s 752 mmHg 84%
    04:00 +27°C° 0,1 mm 1 m/s 752 mmHg 85%
    05:00 +26°C° 0,1 mm 1 m/s 752 mmHg 87%
    06:00 +28°C° 0 mm 1 m/s 753 mmHg 80%
    07:00 +29°C° 0 mm 2 m/s 754 mmHg 72%
    08:00 +31°C° 0 mm 2 m/s 755 mmHg 65%
    09:00 +34°C° 0 mm 2 m/s 754 mmHg 57%
    10:00 +36°C° 0 mm 2 m/s 754 mmHg 50%
    11:00 +38°C° 0 mm 3 m/s 754 mmHg 42%
    12:00 +39°C° 0 mm 2 m/s 753 mmHg 39%
    13:00 +40°C° 0 mm 2 m/s 752 mmHg 36%
    14:00 +41°C° 0 mm 2 m/s 751 mmHg 33%
    15:00 +40°C° 0 mm 2 m/s 751 mmHg 35%
    16:00 +39°C° 0 mm 1 m/s 751 mmHg 37%
    17:00 +37°C° 0 mm 1 m/s 750 mmHg 39%
    18:00 +36°C° 0 mm 1 m/s 751 mmHg 43%
    19:00 +34°C° 0 mm 1 m/s 752 mmHg 46%
    20:00 +33°C° 0 mm 1 m/s 752 mmHg 50%
    21:00 +32°C° 0,2 mm 1 m/s 752 mmHg 54%
    22:00 +31°C° 0,2 mm 1 m/s 752 mmHg 58%
    23:00 +30°C° 0,2 mm 1 m/s 752 mmHg 62%

    24 Setembro, Domingo

    Tempo Temperatura Precipitação Vento Pressão Humidade
    00:00 +29°C° 0,1 mm 1 m/s 752 mmHg 65%
    01:00 +29°C° 0,1 mm 1 m/s 752 mmHg 69%
    02:00 +28°C° 0,1 mm 1 m/s 751 mmHg 72%
    03:00 +26°C° 0,3 mm 0 m/s 752 mmHg 73%
    04:00 +26°C° 0,3 mm 0 m/s 752 mmHg 75%
    05:00 +25°C° 0,3 mm 0 m/s 753 mmHg 77%
    06:00 +27°C° 0 mm 0 m/s 753 mmHg 71%
    07:00 +28°C° 0 mm 0 m/s 754 mmHg 66%
    08:00 +30°C° 0 mm 0 m/s 755 mmHg 60%
    09:00 +34°C° 0 mm 1 m/s 754 mmHg 52%
    10:00 +36°C° 0 mm 1 m/s 754 mmHg 43%
    11:00 +39°C° 0 mm 2 m/s 753 mmHg 35%
    12:00 +40°C° 0 mm 2 m/s 753 mmHg 32%
    13:00 +41°C° 0 mm 2 m/s 752 mmHg 30%
    14:00 +41°C° 0 mm 2 m/s 751 mmHg 27%
    15:00 +40°C° 0 mm 1 m/s 750 mmHg 31%
    16:00 +39°C° 0 mm 1 m/s 750 mmHg 34%
    17:00 +34°C° 0 mm 0 m/s 750 mmHg 37%
    18:00 +33°C° 0 mm 0 m/s 750 mmHg 39%
    19:00 +32°C° 0 mm 0 m/s 751 mmHg 41%
    20:00 +31°C° 0 mm 0 m/s 751 mmHg 43%
    21:00 +32°C° 0,1 mm 1 m/s 752 mmHg 46%
    22:00 +32°C° 0,1 mm 1 m/s 752 mmHg 50%
    23:00 +31°C° 0,1 mm 1 m/s 752 mmHg 53%

    25 Setembro, Segunda-feira

    Tempo Temperatura Precipitação Vento Pressão Humidade
    00:00 +30°C° 0 mm 1 m/s 752 mmHg 56%
    01:00 +30°C° 0 mm 1 m/s 752 mmHg 59%
    02:00 +29°C° 0 mm 1 m/s 751 mmHg 61%
    03:00 +29°C° 0 mm 1 m/s 752 mmHg 62%
    04:00 +27°C° 0 mm 0 m/s 752 mmHg 63%
    05:00 +27°C° 0 mm 0 m/s 753 mmHg 64%
    06:00 +29°C° 0,1 mm 1 m/s 754 mmHg 65%
    07:00 +29°C° 0,1 mm 1 m/s 754 mmHg 66%
    08:00 +29°C° 0,1 mm 1 m/s 755 mmHg 67%
    09:00 +31°C° 0,4 mm 1 m/s 755 mmHg 63%
    10:00 +32°C° 0,4 mm 1 m/s 755 mmHg 59%
    11:00 +33°C° 0,4 mm 1 m/s 755 mmHg 54%
    12:00 +36°C° 0,2 mm 1 m/s 754 mmHg 47%
    13:00 +39°C° 0,2 mm 1 m/s 753 mmHg 39%
    14:00 +38°C° 0,2 mm 0 m/s 752 mmHg 32%
    15:00 +40°C° 0 mm 1 m/s 752 mmHg 37%
    16:00 +37°C° 0 mm 1 m/s 752 mmHg 41%
    17:00 +35°C° 0 mm 1 m/s 751 mmHg 46%
    18:00 +33°C° 0 mm 1 m/s 752 mmHg 53%
    19:00 +32°C° 0 mm 2 m/s 752 mmHg 59%
    20:00 +30°C° 0 mm 2 m/s 752 mmHg 65%
    21:00 +30°C° 0 mm 1 m/s 752 mmHg 69%
    22:00 +29°C° 0 mm 1 m/s 752 mmHg 73%
    23:00 +28°C° 0 mm 1 m/s 752 mmHg 76%

    26 Setembro, Terça-feira

    Tempo Temperatura Precipitação Vento Pressão Humidade
    00:00 +28°C° 0 mm 1 m/s 752 mmHg 78%
    01:00 +28°C° 0 mm 1 m/s 752 mmHg 80%
    02:00 +27°C° 0 mm 1 m/s 751 mmHg 82%
    03:00 +27°C° 0,1 mm 1 m/s 752 mmHg 82%
    04:00 +27°C° 0,1 mm 1 m/s 752 mmHg 83%
    05:00 +25°C° 0,1 mm 0 m/s 753 mmHg 83%
    06:00 +26°C° 0,3 mm 0 m/s 753 mmHg 80%
    07:00 +27°C° 0,3 mm 0 m/s 754 mmHg 77%
    08:00 +28°C° 0,3 mm 0 m/s 755 mmHg 74%
    09:00 +29°C° 0,9 mm 0 m/s 754 mmHg 70%
    10:00 +31°C° 0,9 mm 0 m/s 754 mmHg 66%
    11:00 +32°C° 0,9 mm 0 m/s 754 mmHg 63%
    12:00 +32°C° 1,1 mm 0 m/s 753 mmHg 59%
    13:00 +33°C° 1,1 mm 0 m/s 753 mmHg 55%
    14:00 +33°C° 1,1 mm 0 m/s 752 mmHg 51%
    15:00 +34°C° 0 mm 1 m/s 752 mmHg 54%
    16:00 +33°C° 0 mm 1 m/s 751 mmHg 57%
    17:00 +33°C° 0 mm 1 m/s 751 mmHg 60%
    18:00 +31°C° 0 mm 1 m/s 752 mmHg 64%
    19:00 +30°C° 0 mm 1 m/s 752 mmHg 69%
    20:00 +29°C° 0 mm 1 m/s 752 mmHg 73%
    21:00 +29°C° 0 mm 1 m/s 752 mmHg 76%
    22:00 +28°C° 0 mm 1 m/s 752 mmHg 78%
    23:00 +28°C° 0 mm 1 m/s 752 mmHg 81%
    Mostrar mais